DW9750 Weather Reports


time (UTC)temp
F
wind
direction
speed
knots
gust
knots
rain 1hr
in
rain 24hr
in
rain mn
in
humidity
%
barometer
mb
20260905083032 72 54 0.0 0.0 0.00 0.00 0.00 90 1011.4
20260905081530 72 54 0.0 0.0 0.00 0.00 0.00 88 1011.5
20260905080033 72 54 0.0 0.0 0.00 0.00 0.00 87 1011.6
20260905074527 73 54 0.0 0.0 0.00 0.00 0.00 86 1011.7
20260905073035 74 54 0.0 1.7 0.00 0.00 0.00 85 1011.9
20260905071525 73 92 0.9 2.6 0.00 0.00 0.00 85 1011.8
20260905070043 73 94 0.0 0.0 0.00 0.00 0.00 84 1011.9
20260905064537 74 94 0.0 0.0 0.00 0.00 0.00 83 1011.8
20260905063021 74 94 0.0 0.0 0.00 0.00 0.00 83 1012.0
20260905061519 74 94 0.0 0.0 0.00 0.00 0.00 82 1012.0
20260905060020 76 94 0.0 0.0 0.00 0.00 0.00 80 1011.8
20260905054523 76 90 0.9 4.3 0.00 0.00 0.00 79 1011.7
20260905053012 76 83 0.0 1.7 0.00 0.00 0.00 79 1011.9
20260905051518 76 58 0.0 0.0 0.00 0.00 0.00 79 1011.9
20260905050009 76 58 0.0 0.0 0.00 0.00 0.00 78 1011.9
20260905044508 76 58 0.0 0.0 0.00 0.00 0.00 77 1011.9
20260905043008 77 58 0.0 0.0 0.00 0.00 0.00 76 1012.0
20260905041507 78 88 0.0 2.6 0.00 0.00 0.00 74 1011.8
20260905040014 78 109 0.0 2.6 0.00 0.00 0.00 73 1011.8
20260905034517 79 99 0.9 2.6 0.00 0.00 0.00 72 1011.7
20260905033005 79 109 0.9 4.3 0.00 0.00 0.00 71 1011.6
20260905031504 79 97 0.9 5.2 0.00 0.00 0.00 70 1011.6
20260905030004 80 83 1.7 4.3 0.00 0.00 0.00 69 1011.4
20260905024503 79 90 1.7 5.2 0.00 0.00 0.00 70 1011.2
20260905023004 79 189 0.0 0.0 0.00 0.00 0.00 68 1010.9
20260905021502 80 189 0.0 0.0 0.00 0.00 0.00 67 1010.6
20260905020001 81 189 0.0 0.0 0.00 0.00 0.00 65 1010.6
20260905014500 81 189 0.0 0.0 0.00 0.00 0.00 66 1010.4
20260905013101 82 189 0.0 0.0 0.00 0.00 0.00 65 1010.3
20260905013001 82 189 0.0 0.0 0.00 0.00 0.00 66 1010.3
20260905011606 82 189 0.0 0.0 0.00 0.00 0.00 66 1010.2
20260905010059 82 189 0.0 0.0 0.00 0.00 0.00 65 1010.2
20260905004604 83 189 0.0 0.0 0.00 0.00 0.00 64 1010.3
20260905003101 84 189 0.0 0.0 0.00 0.00 0.00 62 1010.3
20260905001607 85 189 0.0 1.7 0.00 0.00 0.00 61 1010.1
20260904234605 85 131 0.9 5.2 0.00 0.00 0.00 59 1009.9
20260904233056 86 90 0.9 3.5 0.00 0.00 0.00 61 1009.7
20260904231555 86 135 2.6 6.1 0.00 0.00 0.00 61 1009.5
20260904230054 87 181 1.7 6.1 0.00 0.00 0.00 63 1009.5
20260904224652 87 132 1.7 6.1 0.00 0.00 0.00 60 1009.6
20260904223053 88 150 1.7 6.1 0.00 0.00 0.00 59 1009.8
20260904221553 88 169 1.7 5.2 0.00 0.00 0.00 58 1009.9
20260904220104 88 193 3.5 7.0 0.00 0.00 0.00 57 1010.0
20260904214544 87 184 2.6 5.2 0.00 0.00 0.00 64 1010.0
20260904213044 87 78 2.6 5.2 0.00 0.00 0.00 64 1010.2
20260904211552 87 152 1.7 4.3 0.00 0.00 0.00 65 1010.4
20260904210046 87 110 1.7 6.1 0.00 0.00 0.00 64 1010.6
20260904204541 87 156 0.9 6.1 0.00 0.00 0.00 64 1010.7
20260904203041 87 136 1.7 5.2 0.00 0.00 0.00 63 1010.9
20260904201540 88 155 1.7 7.0 0.00 0.00 0.00 61 1010.9
20260904200048 88 89 0.9 6.1 0.00 0.00 0.00 62 1011.0
20260904194620 88 149 2.6 7.8 0.00 0.00 0.00 61 1011.0
20260904193040 87 202 1.7 7.8 0.00 0.00 0.00 63 1011.2
20260904191533 87 220 0.9 6.1 0.00 0.00 0.00 62 1011.3
20260904190032 87 118 3.5 6.1 0.00 0.00 0.00 62 1011.4
20260904184530 86 90 2.6 6.1 0.00 0.00 0.00 64 1011.4
20260904183030 86 85 2.6 8.7 0.00 0.00 0.00 65 1011.7
20260904181529 86 187 1.7 7.0 0.00 0.00 0.00 65 1011.7
20260904180029 87 120 1.7 6.1 0.00 0.00 0.00 65 1011.9
20260904174526 86 125 2.6 7.0 0.00 0.00 0.00 67 1011.9
20260904173033 85 184 2.6 7.8 0.00 0.00 0.00 68 1012.0
20260904171526 84 113 2.6 6.1 0.00 0.00 0.00 69 1012.2
20260904170020 84 163 2.6 7.8 0.00 0.00 0.00 70 1012.4
20260904164519 84 114 3.5 5.2 0.00 0.00 0.00 70 1012.4
20260904163018 85 116 2.6 7.0 0.00 0.00 0.00 70 1012.5
20260904161515 83 90 3.5 7.8 0.00 0.00 0.00 71 1012.5
20260904160013 83 211 0.0 6.1 0.00 0.00 0.00 74 1012.4
20260904154511 82 95 2.6 6.1 0.00 0.00 0.00 74 1012.4
20260904153021 82 95 2.6 7.8 0.00 0.00 0.00 76 1012.3
20260904151510 81 163 2.6 6.1 0.00 0.00 0.00 78 1012.2
20260904150007 80 109 2.6 7.0 0.00 0.00 0.00 79 1012.5
20260904144506 80 126 1.7 4.3 0.00 0.00 0.00 82 1012.4
20260904143006 79 115 1.7 4.3 0.00 0.00 0.00 84 1012.2
20260904141503 78 193 1.7 5.2 0.00 0.00 0.00 85 1012.2
20260904140003 78 54 0.9 5.2 0.00 0.00 0.00 86 1012.1
20260904134619 77 101 1.7 4.3 0.00 0.00 0.00 87 1012.0
20260904133113 76 111 0.0 4.3 0.00 0.00 0.00 88 1011.9
20260904131613 76 104 1.7 4.3 0.00 0.00 0.00 88 1011.6
20260904130054 76 123 1.7 3.5 0.00 0.00 0.00 88 1011.4
20260904124553 76 92 1.7 3.5 0.00 0.00 0.00 88 1011.3
20260904123052 75 130 0.9 4.3 0.00 0.00 0.00 88 1011.0
20260904121551 75 98 1.7 4.3 0.00 0.00 0.00 87 1010.8
20260904120048 76 99 2.6 4.3 0.00 0.00 0.00 86 1010.7
20260904114547 76 118 0.0 2.6 0.00 0.00 0.00 86 1010.6
20260904113046 76 151 0.0 1.7 0.00 0.00 0.00 86 1010.5
20260904111545 76 96 0.9 2.6 0.00 0.00 0.00 85 1010.5
20260904110044 77 182 0.0 2.6 0.00 0.00 0.00 84 1010.4
20260904104543 77 198 0.0 3.5 0.00 0.00 0.00 84 1010.5
20260904103050 77 175 0.0 3.5 0.00 0.00 0.00 84 1010.4
20260904101542 77 203 0.9 4.3 0.00 0.00 0.00 84 1010.5
20260904100042 77 149 0.9 5.2 0.00 0.00 0.00 84 1010.4
20260904094544 77 189 0.0 3.5 0.00 0.00 0.00 85 1010.4
20260904093043 76 159 0.0 0.0 0.00 0.00 0.00 85 1010.3
20260904091542 76 172 0.0 3.5 0.00 0.00 0.00 85 1010.3
20260904090048 76 121 0.0 0.0 0.00 0.00 0.00 85 1010.4
20260904084539 76 121 0.0 1.7 0.00 0.00 0.00 85 1010.3